Regional Weather Roundup
Issued by NWS

Home | Current Version | Previous Version | Graphics & Text | Print | Product List | Glossary On
Versions: 1 2 3 4 5 6 7 8 9 10 11 12 13 14 15 16 17 18 19 20 21 22 23 24 25 26 27 28 29 30 31 32 33 34 35 36 37 38 39 40 41 42 43 44 45 46 47 48 49 50
000
ASUS43 KDMX 211807
RWRIA

WEATHER ROUNDUP FOR IOWA
NATIONAL WEATHER SERVICE DES MOINES IA
100 PM CDT MON JUL 21 2014

NOTE: "FAIR" INDICATES FEW OR NO CLOUDS BELOW 12,000 FEET WITH NO
SIGNIFICANT WEATHER AND/OR OBSTRUCTIONS TO VISIBILITY.

* - THESE STATIONS ARE NOT NWS STATIONS...THUS NOT UNDER NWS
QUALITY CONTROL.  THEY ALSO DO NOT REPORT WEATHER SUCH
AS PRECIPITATION OR FOG.

IAZ001>003-012>014-020>022-031>034-043>046-211900-
   NORTHWEST IOWA

CITY           SKY/WX    TMP DP  RH WIND       PRES   REMARKS
CARROLL *      CLOUDY    84  75  74 S12       29.90S HX  92
CHEROKEE *     CLOUDY    82  75  78 S14G20    29.86F HX  89
DENISON *      PTSUNNY   82  75  78 S12G20    29.87S HX  89
LE MARS *      PTSUNNY   82  75  78 SE15G22   29.84R HX  89
ORANGE CITY *  PTSUNNY   84  73  70 SE12      29.84S HX  91
SHELDON *      CLOUDY    81  75  83 SE17      29.84S HX  86
SIOUX CITY     MOSUNNY   85  75  72 S12G21    29.84R HX  93
6HR MIN TEMP:  73; 6HR MAX TEMP:  87;

SPENCER        CLOUDY    82  73  74 S15G22    29.88S HX  87
6HR MIN TEMP:  73; 6HR MAX TEMP:  82;

STORM LAKE *   CLOUDY    81  77  89 S15       29.89F HX  88
$$

IAZ055>058-069>071-079>083-090>094-211900-
   SOUTHWEST IOWA

CITY           SKY/WX    TMP DP  RH WIND       PRES   REMARKS
ATLANTIC *     MOSUNNY   88  75  66 S16G23    29.89S HX  97
AUDUBON *      SUNNY     88  79  74 S13       29.91S HX 102
CLARINDA *     SUNNY     88  77  70 S14G22    29.93S HX 100
COUNCIL BLFS * MOSUNNY   88  77  70 S18G24    29.87S HX 100
CRESTON *      SUNNY     86  75  70 S18G24    29.94F HX  95
HARLAN  *      PTSUNNY   84  77  79 S16       29.92S HAZE    HX  94
LAMONI         SUNNY     85  73  67 S15G23    29.96F HX  91
6HR MIN TEMP:  69; 6HR MAX TEMP:  85;

RED OAK *      SUNNY     88  77  70 S16G24    29.90S HX 100
SHENANDOAH *   SUNNY     90  79  70 S15G21    29.90F HX 105
$$

IAZ047>049-059>061-072>074-084-211900-
   CENTRAL IOWA

CITY           SKY/WX    TMP DP  RH WIND       PRES   REMARKS
AMES           MOSUNNY   84  74  71 S13       29.92F HX  91
6HR MIN TEMP:  68; 6HR MAX TEMP:  85;

ANKENY *       MOSUNNY   86  75  70 S13G20    29.93S HX  95
CHARITON *     SUNNY     84  73  70 S14G21    29.96S HX  91
DES MOINES     MOSUNNY   88  73  61 S15G24    29.93S HX  95
6HR MIN TEMP:  72; 6HR MAX TEMP:  89;

GRINNELL*      SUNNY     84  73  70 SE14      29.97F HX  91
KNOXVILLE *    MOSUNNY   86  73  66 S17       29.94F HX  93
MARSHALLTOWN   PTSUNNY   83  73  72 S15       29.95F HX  89
6HR MIN TEMP:  68; 6HR MAX TEMP:  84;

PELLA *        MOSUNNY   86  74  68 S12G18    29.96F HX  93
PERRY *          N/A     86  75  70 S14       29.91F HX  95
$$

IAZ004>006-015-016-023>025-035-036-211900-
   NORTH CENTRAL IOWA

CITY           SKY/WX    TMP DP  RH WIND       PRES   REMARKS
ALGONA *       CLOUDY    82  73  74 S15G23    29.90S HX  88
CLARION *      CLOUDY    84  73  70 S14G21    29.92S HX  91
ESTHERVILLE    CLOUDY    81  73  76 S18       29.88F HX  86
6HR MIN TEMP:  69; 6HR MAX TEMP:  82;

FORT DODGE *   CLOUDY    82  72  69 S12G17    29.91F HX  87
MASON CITY     MOSUNNY   85  73  67 S16G23    29.94F HX  91
6HR MIN TEMP:  70; 6HR MAX TEMP:  85;

FOREST CITY *  PTSUNNY   84  73  70 SE18      29.92F HX  91
IOWA FALLS *   CLOUDY    82  72  69 SE14      29.95F HX  87
$$

IAZ007>011-017>019-026>030-037>042-050>054-066-211900-
   NORTHEAST IOWA

CITY           SKY/WX    TMP DP  RH WIND       PRES   REMARKS
CEDAR RAPIDS   MOSUNNY   83  67  58 S13G21    30.00F HX  85
6HR MIN TEMP:  68; 6HR MAX TEMP:  83;

CHARLES CITY * MOSUNNY   82  73  74 SE14G21   29.97S HX  88
DECORAH *      SUNNY     82  70  65 S12G20    29.98F HX  86
DUBUQUE        SUNNY     81  68  64 S18G25    30.03F HX  84
6HR MIN TEMP:  65; 6HR MAX TEMP:  81;

MONTICELLO *   SUNNY     82  70  65 S16       30.01F HX  86
OELWEIN *      PTSUNNY   82  70  65 S21G29    29.99F HX  86
WATERLOO       PTSUNNY   84  69  60 SE17      29.95F HX  88
6HR MIN TEMP:  69; 6HR MAX TEMP:  85;

$$

IAZ064-065-067-068-078-211900-
   EAST CENTRAL IOWA

CITY           SKY/WX    TMP DP  RH WIND       PRES   REMARKS
DAVENPORT      SUNNY     83  66  56 S16       30.05F HX  85
6HR MIN TEMP:  67; 6HR MAX TEMP:  83;

IOWA CITY      SUNNY     84  71  65 S13       30.02F HX  89
6HR MIN TEMP:  66; 6HR MAX TEMP:  84;

MT. PLEASANT * SUNNY     84  67  57 S14G20    30.03S HX  87
MUSCATINE *    SUNNY     84  68  58 SE13G21   30.02F HX  87
QUAD CITIES    SUNNY     83  67  58 S9G18     30.04F HX  85
6HR MIN TEMP:  66; 6HR MAX TEMP:  84;

$$

IAZ062-063-075>077-085>089-095>099-211900-
   SOUTHEAST IOWA

CITY           SKY/WX    TMP DP  RH WIND       PRES   REMARKS
BURLINGTON     SUNNY     84  70  62 S13       30.04F HX  88
6HR MIN TEMP:  66; 6HR MAX TEMP:  84;

FAIRFIELD *    SUNNY     84  70  61 S17       30.00F HX  88
FORT MADISON * SUNNY     84  72  65 S9G18     30.05F HX  89
KEOKUK *       SUNNY     82  72  69 S12       30.04S HX  87
OSKALOOSA *      N/A     85  74  70 S16       29.98F HX  93
OTTUMWA        SUNNY     84  73  69 S16G28    29.98F HX  90
6HR MIN TEMP:  69; 6HR MAX TEMP:  85;

WASHINGTON *   SUNNY     86  72  62 S17       30.01F HX  92
$$

ABBREVIATIONS USED IN REMARKS
   TC - TEMPERATURES IN CELSIUS
  WCI - WIND CHILL INDEX
   HX - HEAT INDEX
  VSB - VISIBILITY
$$




USA.gov is the U.S. government's official web portal to all federal, state and local government web resources and services.